Year,Month,Day,Hour,Minute,Value (Times are PST for temperature in C)
2010,02,20,00,00,1.80
2010,02,20,00,01,1.80
2010,02,20,00,02,1.80
2010,02,20,00,03,1.80
2010,02,20,00,04,1.80
2010,02,20,00,05,1.90
2010,02,20,00,06,1.90
2010,02,20,00,07,2.00
2010,02,20,00,08,2.00
2010,02,20,00,09,2.10
2010,02,20,00,10,2.40
2010,02,20,00,11,2.60
2010,02,20,00,12,2.70
2010,02,20,00,13,2.80
2010,02,20,00,14,2.90
2010,02,20,00,15,3.20
2010,02,20,00,16,3.50
2010,02,20,00,17,4.00
2010,02,20,00,18,4.50
2010,02,20,00,19,4.90
2010,02,20,00,20,5.40
2010,02,20,00,21,5.70
2010,02,20,00,22,6.00
2010,02,20,00,23,6.20
2010,02,20,00,24,6.20
2010,02,20,00,25,6.30
2010,02,20,00,26,6.40
2010,02,20,00,27,6.40
2010,02,20,00,28,6.40
2010,02,20,00,29,6.40
2010,02,20,00,30,6.30
2010,02,20,00,31,6.30
2010,02,20,00,32,6.20
2010,02,20,00,33,6.30
2010,02,20,00,34,6.40
2010,02,20,00,35,6.30
2010,02,20,00,36,6.20
2010,02,20,00,37,6.10
2010,02,20,00,38,6.10
2010,02,20,00,39,6.00
2010,02,20,00,40,5.90
2010,02,20,00,41,5.80
2010,02,20,00,42,5.80
2010,02,20,00,43,5.70
2010,02,20,00,44,5.60
2010,02,20,00,45,5.50
2010,02,20,00,46,5.40
2010,02,20,00,47,5.30
2010,02,20,00,48,5.30
2010,02,20,00,49,5.20
2010,02,20,00,50,5.10
2010,02,20,00,51,5.00
2010,02,20,00,52,4.90
2010,02,20,00,53,4.90
2010,02,20,00,54,4.80
2010,02,20,00,55,4.70
2010,02,20,00,56,4.60
2010,02,20,00,57,4.60
2010,02,20,00,58,4.50
2010,02,20,00,59,4.40
2010,02,20,01,00,4.30
2010,02,20,01,01,4.20
2010,02,20,01,02,4.10
2010,02,20,01,03,4.10
2010,02,20,01,04,4.00
2010,02,20,01,05,3.90
2010,02,20,01,06,3.90
2010,02,20,01,07,3.90
2010,02,20,01,08,3.80
2010,02,20,01,09,3.80
2010,02,20,01,10,3.70
2010,02,20,01,11,3.70
2010,02,20,01,12,3.70
2010,02,20,01,13,3.60
2010,02,20,01,14,3.60
2010,02,20,01,15,3.60
2010,02,20,01,16,3.50
2010,02,20,01,17,3.40
2010,02,20,01,18,3.40
2010,02,20,01,19,3.40
2010,02,20,01,20,3.40
2010,02,20,01,21,3.30
2010,02,20,01,22,3.30
2010,02,20,01,23,3.30
2010,02,20,01,24,3.20
2010,02,20,01,25,3.20
2010,02,20,01,26,3.20
2010,02,20,01,27,3.20
2010,02,20,01,28,3.10
2010,02,20,01,29,3.10
2010,02,20,01,30,3.10
2010,02,20,01,31,3.10
2010,02,20,01,32,3.00
2010,02,20,01,33,3.00
2010,02,20,01,34,2.90
2010,02,20,01,35,2.90
2010,02,20,01,36,2.90
2010,02,20,01,37,2.80
2010,02,20,01,38,2.80
2010,02,20,01,39,2.80
2010,02,20,01,40,2.80
2010,02,20,01,41,2.70
2010,02,20,01,42,2.70
2010,02,20,01,43,2.70
2010,02,20,01,44,2.70
2010,02,20,01,45,2.60
2010,02,20,01,46,2.60
2010,02,20,01,47,2.60
2010,02,20,01,48,2.50
2010,02,20,01,49,2.50
2010,02,20,01,50,2.40
2010,02,20,01,51,2.40
2010,02,20,01,52,2.40
2010,02,20,01,53,2.30
2010,02,20,01,54,2.30
2010,02,20,01,55,2.30
2010,02,20,01,56,2.30
2010,02,20,01,57,2.30
2010,02,20,01,58,2.30
2010,02,20,01,59,2.20
2010,02,20,02,00,2.20
2010,02,20,02,01,2.20
2010,02,20,02,02,2.20
2010,02,20,02,03,2.20
2010,02,20,02,04,2.20
2010,02,20,02,05,2.10
2010,02,20,02,06,2.10
2010,02,20,02,07,2.10
2010,02,20,02,08,2.10
2010,02,20,02,09,2.10
2010,02,20,02,10,2.00
2010,02,20,02,11,2.00
2010,02,20,02,12,1.90
2010,02,20,02,13,1.90
2010,02,20,02,14,1.90
2010,02,20,02,15,1.90
2010,02,20,02,16,1.90
2010,02,20,02,17,1.90
2010,02,20,02,18,1.90
2010,02,20,02,19,1.90
2010,02,20,02,20,1.90
2010,02,20,02,21,1.90
2010,02,20,02,22,1.90
2010,02,20,02,23,1.90
2010,02,20,02,24,1.90
2010,02,20,02,25,1.90
2010,02,20,02,26,1.90
2010,02,20,02,27,1.90
2010,02,20,02,28,1.90
2010,02,20,02,29,1.90
2010,02,20,02,30,1.90
2010,02,20,02,31,1.80
2010,02,20,02,32,1.80
2010,02,20,02,33,1.80
2010,02,20,02,34,1.80
2010,02,20,02,35,1.80
2010,02,20,02,36,1.70
2010,02,20,02,37,1.70
2010,02,20,02,38,1.70
2010,02,20,02,39,1.70
2010,02,20,02,40,1.70
2010,02,20,02,41,1.70
2010,02,20,02,42,1.70
2010,02,20,02,43,1.60
2010,02,20,02,44,1.60
2010,02,20,02,45,1.60
2010,02,20,02,46,1.60
2010,02,20,02,47,1.60
2010,02,20,02,48,1.50
2010,02,20,02,49,1.50
2010,02,20,02,50,1.50
2010,02,20,02,51,1.40
2010,02,20,02,52,1.40
2010,02,20,02,53,1.40
2010,02,20,02,54,1.40
2010,02,20,02,55,1.40
2010,02,20,02,56,1.40
2010,02,20,02,57,1.40
2010,02,20,02,58,1.40
2010,02,20,02,59,1.40
2010,02,20,03,00,1.40
2010,02,20,03,01,1.40
2010,02,20,03,02,1.40
2010,02,20,03,03,1.40
2010,02,20,03,04,1.30
2010,02,20,03,05,1.30
2010,02,20,03,06,1.30
2010,02,20,03,07,1.30
2010,02,20,03,08,1.30
2010,02,20,03,09,1.30
2010,02,20,03,10,1.30
2010,02,20,03,11,1.30
2010,02,20,03,12,1.20
2010,02,20,03,13,1.20
2010,02,20,03,14,1.20
2010,02,20,03,15,1.20
2010,02,20,03,16,1.20
2010,02,20,03,17,1.20
2010,02,20,03,18,1.20
2010,02,20,03,19,1.20
2010,02,20,03,20,1.20
2010,02,20,03,21,1.20
2010,02,20,03,22,1.20
2010,02,20,03,23,1.20
2010,02,20,03,24,1.20
2010,02,20,03,25,1.20
2010,02,20,03,26,1.20
2010,02,20,03,27,1.20
2010,02,20,03,28,1.20
2010,02,20,03,29,1.20
2010,02,20,03,30,1.20
2010,02,20,03,31,1.20
2010,02,20,03,32,1.20
2010,02,20,03,33,1.20
2010,02,20,03,34,1.20
2010,02,20,03,35,1.20
2010,02,20,03,36,1.20
2010,02,20,03,37,1.20
2010,02,20,03,38,1.20
2010,02,20,03,39,1.20
2010,02,20,03,40,1.20
2010,02,20,03,41,1.20
2010,02,20,03,42,1.20
2010,02,20,03,43,1.20
2010,02,20,03,44,1.20
2010,02,20,03,45,1.20
2010,02,20,03,46,1.20
2010,02,20,03,47,1.20
2010,02,20,03,48,1.20
2010,02,20,03,49,1.20
2010,02,20,03,50,1.20
2010,02,20,03,51,1.20
2010,02,20,03,52,1.20
2010,02,20,03,53,1.20
2010,02,20,03,54,1.20
2010,02,20,03,55,1.20
2010,02,20,03,56,1.20
2010,02,20,03,57,1.20
2010,02,20,03,58,1.20
2010,02,20,03,59,1.20
2010,02,20,04,00,1.20
2010,02,20,04,01,1.20
2010,02,20,04,02,1.20
2010,02,20,04,03,1.20
2010,02,20,04,06,1.20
2010,02,20,04,07,1.20
2010,02,20,04,08,1.20
2010,02,20,04,09,1.20
2010,02,20,04,10,1.20
2010,02,20,04,11,1.20
2010,02,20,04,12,1.20
2010,02,20,04,13,1.20
2010,02,20,04,14,1.20
2010,02,20,04,15,1.20
2010,02,20,04,16,1.30
2010,02,20,04,17,1.40
2010,02,20,04,18,1.50
2010,02,20,04,19,1.60
2010,02,20,04,20,1.60
2010,02,20,04,21,1.70
2010,02,20,04,22,1.70
2010,02,20,04,23,1.70
2010,02,20,04,24,1.80
2010,02,20,04,25,1.90
2010,02,20,04,26,1.90
2010,02,20,04,27,1.90
2010,02,20,04,28,1.90
2010,02,20,04,29,1.90
2010,02,20,04,30,1.80
2010,02,20,04,31,1.90
2010,02,20,04,32,1.80
2010,02,20,04,33,1.80
2010,02,20,04,34,1.80
2010,02,20,04,35,1.80
2010,02,20,04,36,1.80
2010,02,20,04,37,1.80
2010,02,20,04,38,1.80
2010,02,20,04,39,1.80
2010,02,20,04,40,1.80
2010,02,20,04,41,1.80
2010,02,20,04,42,1.80
2010,02,20,04,43,1.80
2010,02,20,04,44,1.80
2010,02,20,04,45,1.80
2010,02,20,04,46,1.90
2010,02,20,04,47,1.90
2010,02,20,04,48,1.90
2010,02,20,04,49,1.90
2010,02,20,04,50,1.90
2010,02,20,04,51,1.90
2010,02,20,04,52,1.90
2010,02,20,04,53,1.90
2010,02,20,04,54,1.90
2010,02,20,04,55,1.90
2010,02,20,04,56,1.90
2010,02,20,04,57,1.80
2010,02,20,04,58,1.80
2010,02,20,04,59,1.80
2010,02,20,05,00,1.80
2010,02,20,05,01,1.80
2010,02,20,05,02,1.70
2010,02,20,05,03,1.70
2010,02,20,05,04,1.70
2010,02,20,05,05,1.60
2010,02,20,05,06,1.60
2010,02,20,05,07,1.60
2010,02,20,05,08,1.60
2010,02,20,05,09,1.60
2010,02,20,05,10,1.60
2010,02,20,05,11,1.60
2010,02,20,05,12,1.60
2010,02,20,05,13,1.60
2010,02,20,05,14,1.60
2010,02,20,05,15,1.60
2010,02,20,05,16,1.60
2010,02,20,05,17,1.50
2010,02,20,05,18,1.50
2010,02,20,05,19,1.50
2010,02,20,05,20,1.40
2010,02,20,05,21,1.40
2010,02,20,05,22,1.40
2010,02,20,05,23,1.40
2010,02,20,05,24,1.40
2010,02,20,05,25,1.40
2010,02,20,05,26,1.40
2010,02,20,05,27,1.40
2010,02,20,05,28,1.40
2010,02,20,05,29,1.40
2010,02,20,05,30,1.40
2010,02,20,05,31,1.40
2010,02,20,05,32,1.40
2010,02,20,05,33,1.40
2010,02,20,05,34,1.40
2010,02,20,05,35,1.40
2010,02,20,05,36,1.40
2010,02,20,05,37,1.40
2010,02,20,05,38,1.40
2010,02,20,05,39,1.40
2010,02,20,05,40,1.40
2010,02,20,05,41,1.40
2010,02,20,05,42,1.40
2010,02,20,05,43,1.40
2010,02,20,05,44,1.40
2010,02,20,05,45,1.40
2010,02,20,05,46,1.40
2010,02,20,05,47,1.40
2010,02,20,05,48,1.30
2010,02,20,05,49,1.30
2010,02,20,05,50,1.30
2010,02,20,05,51,1.30
2010,02,20,05,52,1.30
2010,02,20,05,53,1.30
2010,02,20,05,54,1.30
2010,02,20,05,55,1.30
2010,02,20,05,56,1.30
2010,02,20,05,57,1.30
2010,02,20,05,58,1.20
2010,02,20,05,59,1.20
2010,02,20,06,00,1.20
2010,02,20,06,01,1.10
2010,02,20,06,02,1.10
2010,02,20,06,03,1.00
2010,02,20,06,04,1.00
2010,02,20,06,05,1.00
2010,02,20,06,06,0.90
2010,02,20,06,07,0.90
2010,02,20,06,08,0.90
2010,02,20,06,09,0.90
2010,02,20,06,10,0.90
2010,02,20,06,11,0.90
2010,02,20,06,12,0.80
2010,02,20,06,13,0.80
2010,02,20,06,14,0.80
2010,02,20,06,15,0.80
2010,02,20,06,16,0.80
2010,02,20,06,17,0.80
2010,02,20,06,18,0.80
2010,02,20,06,19,0.80
2010,02,20,06,20,0.80
2010,02,20,06,21,0.80
2010,02,20,06,22,0.70
2010,02,20,06,23,0.70
2010,02,20,06,24,0.70
2010,02,20,06,25,0.70
2010,02,20,06,26,0.70
2010,02,20,06,27,0.70
2010,02,20,06,28,0.70
2010,02,20,06,29,0.70
2010,02,20,06,30,0.70
2010,02,20,06,31,0.70
2010,02,20,06,32,0.70
2010,02,20,06,33,0.70
2010,02,20,06,34,0.70
2010,02,20,06,35,0.60
2010,02,20,06,36,0.60
2010,02,20,06,37,0.60
2010,02,20,06,38,0.60
2010,02,20,06,39,0.60
2010,02,20,06,40,0.50
2010,02,20,06,41,0.50
2010,02,20,06,42,0.50
2010,02,20,06,43,0.50
2010,02,20,06,44,0.50
2010,02,20,06,45,0.50
2010,02,20,06,46,0.50
2010,02,20,06,47,0.50
2010,02,20,06,48,0.50
2010,02,20,06,49,0.50
2010,02,20,06,50,0.50
2010,02,20,06,51,0.50
2010,02,20,06,52,0.50
2010,02,20,06,53,0.50
2010,02,20,06,54,0.50
2010,02,20,06,55,0.50
2010,02,20,06,56,0.60
2010,02,20,06,57,0.60
2010,02,20,06,58,0.60
2010,02,20,06,59,0.60
2010,02,20,07,00,0.60
2010,02,20,07,01,0.60
2010,02,20,07,02,0.60
2010,02,20,07,03,0.70
2010,02,20,07,04,0.70
2010,02,20,07,05,0.70
2010,02,20,07,06,0.70
2010,02,20,07,07,0.70
2010,02,20,07,08,0.70
2010,02,20,07,09,0.80
2010,02,20,07,10,0.80
2010,02,20,07,11,0.80
2010,02,20,07,12,0.80
2010,02,20,07,13,0.90
2010,02,20,07,14,0.90
2010,02,20,07,15,1.00
2010,02,20,07,16,1.10
2010,02,20,07,17,1.10
2010,02,20,07,18,1.20
2010,02,20,07,19,1.30
2010,02,20,07,20,1.30
2010,02,20,07,21,1.40
2010,02,20,07,22,1.40
2010,02,20,07,23,1.40
2010,02,20,07,24,1.40
2010,02,20,07,25,1.40
2010,02,20,07,26,1.40
2010,02,20,07,27,1.40
2010,02,20,07,28,1.40
2010,02,20,07,29,1.40
2010,02,20,07,30,1.40
2010,02,20,07,31,1.40
2010,02,20,07,32,1.40
2010,02,20,07,33,1.40
2010,02,20,07,34,1.40
2010,02,20,07,35,1.40
2010,02,20,07,36,1.40
2010,02,20,07,37,1.40
2010,02,20,07,38,1.40
2010,02,20,07,39,1.40
2010,02,20,07,40,1.40
2010,02,20,07,41,1.40
2010,02,20,07,42,1.50
2010,02,20,07,43,1.50
2010,02,20,07,44,1.50
2010,02,20,07,45,1.50
2010,02,20,07,46,1.50
2010,02,20,07,47,1.60
2010,02,20,07,48,1.60
2010,02,20,07,49,1.60
2010,02,20,07,50,1.60
2010,02,20,07,51,1.70
2010,02,20,07,52,1.70
2010,02,20,07,53,1.80
2010,02,20,07,54,1.90
2010,02,20,07,55,1.90
2010,02,20,07,56,2.00
2010,02,20,07,57,2.10
2010,02,20,07,58,2.20
2010,02,20,07,59,2.30
2010,02,20,08,00,2.40
2010,02,20,08,01,2.50
2010,02,20,08,02,2.60
2010,02,20,08,03,2.80
2010,02,20,08,04,3.10
2010,02,20,08,05,3.30
2010,02,20,08,06,3.40
2010,02,20,08,07,3.60
2010,02,20,08,08,3.70
2010,02,20,08,09,3.90
2010,02,20,08,10,4.00
2010,02,20,08,11,4.20
2010,02,20,08,12,4.40
2010,02,20,08,13,4.50
2010,02,20,08,14,4.60
2010,02,20,08,15,4.70
2010,02,20,08,16,4.90
2010,02,20,08,17,5.10
2010,02,20,08,18,5.20
2010,02,20,08,19,5.30
2010,02,20,08,20,5.30
2010,02,20,08,21,5.40
2010,02,20,08,22,5.40
2010,02,20,08,23,5.50
2010,02,20,08,24,5.60
2010,02,20,08,25,5.70
2010,02,20,08,26,5.70
2010,02,20,08,27,5.80
2010,02,20,08,28,5.90
2010,02,20,08,29,6.00
2010,02,20,08,30,6.10
2010,02,20,08,31,6.20
2010,02,20,08,32,6.30
2010,02,20,08,33,6.40
2010,02,20,08,34,6.50
2010,02,20,08,35,6.70
2010,02,20,08,36,6.60
2010,02,20,08,37,6.60
2010,02,20,08,38,6.60
2010,02,20,08,39,6.50
2010,02,20,08,40,6.30
2010,02,20,08,41,6.30
2010,02,20,08,42,6.20
2010,02,20,08,43,6.10
2010,02,20,08,44,6.00
2010,02,20,08,45,6.00
2010,02,20,08,46,6.00
2010,02,20,08,47,6.00
2010,02,20,08,48,6.00
2010,02,20,08,49,6.10
2010,02,20,08,50,6.20
2010,02,20,08,51,6.20
2010,02,20,08,52,6.30
2010,02,20,08,53,6.40
2010,02,20,08,54,6.40
2010,02,20,08,55,6.50
2010,02,20,08,56,6.60
2010,02,20,08,57,6.70
2010,02,20,08,58,6.80
2010,02,20,08,59,7.00
2010,02,20,09,00,7.10
2010,02,20,09,01,7.20
2010,02,20,09,02,7.30
2010,02,20,09,03,7.40
2010,02,20,09,04,7.50
2010,02,20,09,05,7.50
2010,02,20,09,06,7.60
2010,02,20,09,07,7.70
2010,02,20,09,08,7.70
2010,02,20,09,09,7.70
2010,02,20,09,10,7.70
2010,02,20,09,11,7.80
2010,02,20,09,12,7.80
2010,02,20,09,13,7.90
2010,02,20,09,14,8.00
2010,02,20,09,15,8.00
2010,02,20,09,16,8.10
2010,02,20,09,17,8.10
2010,02,20,09,18,8.20
2010,02,20,09,19,8.20
2010,02,20,09,20,8.30
2010,02,20,09,21,8.30
2010,02,20,09,22,8.40
2010,02,20,09,23,8.40
2010,02,20,09,24,8.50
2010,02,20,09,25,8.60
2010,02,20,09,26,8.60
2010,02,20,09,27,8.60
2010,02,20,09,28,8.70
2010,02,20,09,29,8.70
2010,02,20,09,30,8.80
2010,02,20,09,31,8.80
2010,02,20,09,32,8.80
2010,02,20,09,33,8.80
2010,02,20,09,34,8.90
2010,02,20,09,35,8.90
2010,02,20,09,36,8.90
2010,02,20,09,37,9.00
2010,02,20,09,38,9.00
2010,02,20,09,39,9.10
2010,02,20,09,40,9.10
2010,02,20,09,41,9.10
2010,02,20,09,42,9.10
2010,02,20,09,43,9.10
2010,02,20,09,44,9.20
2010,02,20,09,45,9.20
2010,02,20,09,46,9.20
2010,02,20,09,47,9.20
2010,02,20,09,48,9.20
2010,02,20,09,49,9.20
2010,02,20,09,50,9.30
2010,02,20,09,51,9.30
2010,02,20,09,52,9.30
2010,02,20,09,53,9.40
2010,02,20,09,54,9.40
2010,02,20,09,55,9.40
2010,02,20,09,56,9.50
2010,02,20,09,57,9.50
2010,02,20,09,58,9.60
2010,02,20,09,59,9.60
2010,02,20,10,00,9.60
2010,02,20,10,01,9.70
2010,02,20,10,02,9.70
2010,02,20,10,03,9.70
2010,02,20,10,04,9.70
2010,02,20,10,05,9.80
2010,02,20,10,06,9.80
2010,02,20,10,07,9.80
2010,02,20,10,08,9.80
2010,02,20,10,09,9.80
2010,02,20,10,10,9.80
2010,02,20,10,11,9.80
2010,02,20,10,12,9.80
2010,02,20,10,13,9.80
2010,02,20,10,14,9.80
2010,02,20,10,15,9.80
2010,02,20,10,16,9.80
2010,02,20,10,17,9.90
2010,02,20,10,18,9.90
2010,02,20,10,19,9.90
2010,02,20,10,20,10.00
2010,02,20,10,21,10.10
2010,02,20,10,22,10.20
2010,02,20,10,23,10.20
2010,02,20,10,24,10.30
2010,02,20,10,25,10.30
2010,02,20,10,26,10.30
2010,02,20,10,27,10.30
2010,02,20,10,28,10.40
2010,02,20,10,29,10.30
2010,02,20,10,30,10.40
2010,02,20,10,31,10.40
2010,02,20,10,32,10.40
2010,02,20,10,33,10.40
2010,02,20,10,34,10.50
2010,02,20,10,35,10.50
2010,02,20,10,36,10.50
2010,02,20,10,37,10.60
2010,02,20,10,38,10.60
2010,02,20,10,39,10.60
2010,02,20,10,40,10.60
2010,02,20,10,41,10.60
2010,02,20,10,42,10.70
2010,02,20,10,43,10.70
2010,02,20,10,44,10.70
2010,02,20,10,45,10.70
2010,02,20,10,46,10.70
2010,02,20,10,47,10.70
2010,02,20,10,48,10.70
2010,02,20,10,49,10.70
2010,02,20,10,50,10.70
2010,02,20,10,51,10.70
2010,02,20,10,52,10.70
2010,02,20,10,53,10.70
2010,02,20,10,54,10.70
2010,02,20,10,55,10.80
2010,02,20,10,56,10.80
2010,02,20,10,57,10.80
2010,02,20,10,58,10.90
2010,02,20,10,59,10.90
2010,02,20,11,00,11.00
2010,02,20,11,01,11.00
2010,02,20,11,02,11.00
2010,02,20,11,03,11.10
2010,02,20,11,04,11.10
2010,02,20,11,05,11.10
2010,02,20,11,06,11.10
2010,02,20,11,07,11.10
2010,02,20,11,08,11.10
2010,02,20,11,09,11.20
2010,02,20,11,10,11.20
2010,02,20,11,11,11.20
2010,02,20,11,12,11.20
2010,02,20,11,13,11.20
2010,02,20,11,14,11.30
2010,02,20,11,15,11.30
2010,02,20,11,16,11.30
2010,02,20,11,17,11.30
2010,02,20,11,18,11.40
2010,02,20,11,19,11.40
2010,02,20,11,20,11.40
2010,02,20,11,21,11.50
2010,02,20,11,22,11.50
2010,02,20,11,23,11.60
2010,02,20,11,24,11.60
2010,02,20,11,25,11.70
2010,02,20,11,26,11.70
2010,02,20,11,27,11.70
2010,02,20,11,28,11.70
2010,02,20,11,29,11.70
2010,02,20,11,30,11.80
2010,02,20,11,31,11.80
2010,02,20,11,32,11.80
2010,02,20,11,33,11.80
2010,02,20,11,34,11.70
2010,02,20,11,35,11.70
2010,02,20,11,36,11.50
2010,02,20,11,37,11.50
2010,02,20,11,38,11.40
2010,02,20,11,39,11.30
2010,02,20,11,40,11.20
2010,02,20,11,41,11.20
2010,02,20,11,42,11.20
2010,02,20,11,43,11.20
2010,02,20,11,44,11.20
2010,02,20,11,45,11.20
2010,02,20,11,46,11.20
2010,02,20,11,47,11.10
2010,02,20,11,48,11.10
2010,02,20,11,49,11.10
2010,02,20,11,50,11.10
2010,02,20,11,51,11.20
2010,02,20,11,52,11.20
2010,02,20,11,53,11.20
2010,02,20,11,54,11.20
2010,02,20,11,55,11.30
2010,02,20,11,56,11.30
2010,02,20,11,57,11.30
2010,02,20,11,58,11.30
2010,02,20,11,59,11.20
2010,02,20,12,00,11.20
2010,02,20,12,01,11.10
2010,02,20,12,02,11.10
2010,02,20,12,03,11.10
2010,02,20,12,04,11.10
2010,02,20,12,05,11.20
2010,02,20,12,06,11.20
2010,02,20,12,07,11.20
2010,02,20,12,08,11.20
2010,02,20,12,09,11.30
2010,02,20,12,10,11.30
2010,02,20,12,11,11.20
2010,02,20,12,12,11.20
2010,02,20,12,13,11.20
2010,02,20,12,14,11.20
2010,02,20,12,15,11.20
2010,02,20,12,16,11.20
2010,02,20,12,17,11.20
2010,02,20,12,18,11.20
2010,02,20,12,19,11.20
2010,02,20,12,20,11.20
2010,02,20,12,21,11.30
2010,02,20,12,22,11.30
2010,02,20,12,23,11.40
2010,02,20,12,24,11.30
2010,02,20,12,25,11.30
2010,02,20,12,26,11.30
2010,02,20,12,27,11.30
2010,02,20,12,28,11.30
2010,02,20,12,29,11.30
2010,02,20,12,30,11.30
2010,02,20,12,31,11.30
2010,02,20,12,32,11.30
2010,02,20,12,33,11.30
2010,02,20,12,34,11.30
2010,02,20,12,35,11.30
2010,02,20,12,36,11.30
2010,02,20,12,37,11.30
2010,02,20,12,38,11.30
2010,02,20,12,39,11.30
2010,02,20,12,40,11.40
2010,02,20,12,41,11.40
2010,02,20,12,42,11.40
2010,02,20,12,43,11.40
2010,02,20,12,44,11.30
2010,02,20,12,45,11.30
2010,02,20,12,46,11.30
2010,02,20,12,47,11.40
2010,02,20,12,48,11.40
2010,02,20,12,49,11.50
2010,02,20,12,50,11.50
2010,02,20,12,51,11.50
2010,02,20,12,52,11.50
2010,02,20,12,53,11.50
2010,02,20,12,54,11.40
2010,02,20,12,55,11.40
2010,02,20,12,56,11.50
2010,02,20,12,57,11.50
2010,02,20,12,58,11.50
2010,02,20,12,59,11.40
2010,02,20,13,00,11.40
2010,02,20,13,01,11.50
2010,02,20,13,02,11.50
2010,02,20,13,03,11.50
2010,02,20,13,04,11.40
2010,02,20,13,05,11.40
2010,02,20,13,06,11.40
2010,02,20,13,07,11.40
2010,02,20,13,08,11.50
2010,02,20,13,09,11.50
2010,02,20,13,10,11.60
2010,02,20,13,11,11.60
2010,02,20,13,12,11.60
2010,02,20,13,13,11.60
2010,02,20,13,14,11.70
2010,02,20,13,15,11.70
2010,02,20,13,16,11.80
2010,02,20,13,17,11.80
2010,02,20,13,18,11.80
2010,02,20,13,19,11.80
2010,02,20,13,20,11.80
2010,02,20,13,21,11.80
2010,02,20,13,22,11.90
2010,02,20,13,23,11.90
2010,02,20,13,24,11.90
2010,02,20,13,25,11.90
2010,02,20,13,26,11.90
2010,02,20,13,27,11.80
2010,02,20,13,28,11.80
2010,02,20,13,29,11.80
2010,02,20,13,30,11.80
2010,02,20,13,31,11.80
2010,02,20,13,32,11.80
2010,02,20,13,33,11.80
2010,02,20,13,34,11.80
2010,02,20,13,35,11.70
2010,02,20,13,36,11.70
2010,02,20,13,37,11.70
2010,02,20,13,38,11.70
2010,02,20,13,39,11.80
2010,02,20,13,40,11.80
2010,02,20,13,41,11.80
2010,02,20,13,42,11.70
2010,02,20,13,43,11.70
2010,02,20,13,44,11.70
2010,02,20,13,45,11.70
2010,02,20,13,46,11.70
2010,02,20,13,47,11.70
2010,02,20,13,48,11.80
2010,02,20,13,49,11.80
2010,02,20,13,50,11.80
2010,02,20,13,51,11.80
2010,02,20,13,52,11.80
2010,02,20,13,53,11.80
2010,02,20,13,54,11.80
2010,02,20,13,55,11.80
2010,02,20,13,56,11.80
2010,02,20,13,57,11.80
2010,02,20,13,58,11.80
2010,02,20,13,59,11.80
2010,02,20,14,00,11.80
2010,02,20,14,01,11.80
2010,02,20,14,02,11.80
2010,02,20,14,03,11.80
2010,02,20,14,04,11.80
2010,02,20,14,05,11.70
2010,02,20,14,06,11.70
2010,02,20,14,07,11.70
2010,02,20,14,08,11.70
2010,02,20,14,09,11.80
2010,02,20,14,10,11.80
2010,02,20,14,11,11.80
2010,02,20,14,12,11.80
2010,02,20,14,13,11.90
2010,02,20,14,14,11.90
2010,02,20,14,15,11.90
2010,02,20,14,16,11.80
2010,02,20,14,17,11.80
2010,02,20,14,18,11.90
2010,02,20,14,19,11.90
2010,02,20,14,20,11.80
2010,02,20,14,21,11.80
2010,02,20,14,22,11.80
2010,02,20,14,23,11.80
2010,02,20,14,24,11.80
2010,02,20,14,25,11.80
2010,02,20,14,26,11.80
2010,02,20,14,27,11.80
2010,02,20,14,28,11.80
2010,02,20,14,29,11.90
2010,02,20,14,30,11.90
2010,02,20,14,31,11.90
2010,02,20,14,32,11.80
2010,02,20,14,33,11.80
2010,02,20,14,34,11.90
2010,02,20,14,35,11.90
2010,02,20,14,36,11.90
2010,02,20,14,37,11.90
2010,02,20,14,38,11.80
2010,02,20,14,39,11.80
2010,02,20,14,40,11.80
2010,02,20,14,41,11.80
2010,02,20,14,42,11.80
2010,02,20,14,43,11.90
2010,02,20,14,44,11.90
2010,02,20,14,45,12.00
2010,02,20,14,46,12.00
2010,02,20,14,47,12.00
2010,02,20,14,48,12.00
2010,02,20,14,49,12.00
2010,02,20,14,50,12.00
2010,02,20,14,51,12.00
2010,02,20,14,52,11.90
2010,02,20,14,53,11.90
2010,02,20,14,54,11.90
2010,02,20,14,55,11.90
2010,02,20,14,56,11.90
2010,02,20,14,57,12.00
2010,02,20,14,58,11.90
2010,02,20,14,59,11.90
2010,02,20,15,00,11.90
2010,02,20,15,01,12.00
2010,02,20,15,02,12.00
2010,02,20,15,03,12.00
2010,02,20,15,04,12.00
2010,02,20,15,05,12.10
2010,02,20,15,06,12.10
2010,02,20,15,07,12.10
2010,02,20,15,08,12.20
2010,02,20,15,09,12.20
2010,02,20,15,10,12.20
2010,02,20,15,11,12.20
2010,02,20,15,12,12.20
2010,02,20,15,13,12.20
2010,02,20,15,14,12.10
2010,02,20,15,15,12.10
2010,02,20,15,16,12.10
2010,02,20,15,17,12.10
2010,02,20,15,18,12.20
2010,02,20,15,19,12.20
2010,02,20,15,20,12.20
2010,02,20,15,21,12.20
2010,02,20,15,22,12.20
2010,02,20,15,23,12.20
2010,02,20,15,24,12.20
2010,02,20,15,25,12.10
2010,02,20,15,26,12.10
2010,02,20,15,27,12.10
2010,02,20,15,28,12.10
2010,02,20,15,29,12.10
2010,02,20,15,30,12.10
2010,02,20,15,31,12.10
2010,02,20,15,32,12.10
2010,02,20,15,33,12.10
2010,02,20,15,34,12.10
2010,02,20,15,35,12.10
2010,02,20,15,36,12.10
2010,02,20,15,37,12.10
2010,02,20,15,38,12.10
2010,02,20,15,39,12.10
2010,02,20,15,40,12.10
2010,02,20,15,41,12.20
2010,02,20,15,42,12.20
2010,02,20,15,43,12.20
2010,02,20,15,44,12.20
2010,02,20,15,45,12.20
2010,02,20,15,46,12.20
2010,02,20,15,47,12.20
2010,02,20,15,48,12.20
2010,02,20,15,49,12.20
2010,02,20,15,50,12.20
2010,02,20,15,51,12.20
2010,02,20,15,52,12.20
2010,02,20,15,53,12.20
2010,02,20,15,54,12.20
2010,02,20,15,55,12.20
2010,02,20,15,56,12.20
2010,02,20,15,57,12.20
2010,02,20,15,58,12.20
2010,02,20,15,59,12.20
2010,02,20,16,00,12.20
2010,02,20,16,01,12.10
2010,02,20,16,02,12.10
2010,02,20,16,03,12.10
2010,02,20,16,04,12.10
2010,02,20,16,05,12.10
2010,02,20,16,06,12.10
2010,02,20,16,07,12.10
2010,02,20,16,08,12.10
2010,02,20,16,09,12.10
2010,02,20,16,10,12.10
2010,02,20,16,11,12.10
2010,02,20,16,12,12.10
2010,02,20,16,13,12.10
2010,02,20,16,14,12.10
2010,02,20,16,15,12.10
2010,02,20,16,16,12.10
2010,02,20,16,17,12.10
2010,02,20,16,18,12.10
2010,02,20,16,19,12.10
2010,02,20,16,20,12.10
2010,02,20,16,21,12.10
2010,02,20,16,22,12.10
2010,02,20,16,23,12.10
2010,02,20,16,24,12.00
2010,02,20,16,25,12.00
2010,02,20,16,26,12.00
2010,02,20,16,27,12.00
2010,02,20,16,28,12.00
2010,02,20,16,29,12.00
2010,02,20,16,30,11.90
2010,02,20,16,31,11.90
2010,02,20,16,32,11.90
2010,02,20,16,33,11.90
2010,02,20,16,34,11.90
2010,02,20,16,35,11.90
2010,02,20,16,36,11.80
2010,02,20,16,37,11.80
2010,02,20,16,38,11.80
2010,02,20,16,39,11.80
2010,02,20,16,40,11.80
2010,02,20,16,41,11.70
2010,02,20,16,42,11.70
2010,02,20,16,43,11.70
2010,02,20,16,44,11.70
2010,02,20,16,45,11.60
2010,02,20,16,46,11.60
2010,02,20,16,47,11.60
2010,02,20,16,48,11.60
2010,02,20,16,49,11.50
2010,02,20,16,50,11.50
2010,02,20,16,51,11.50
2010,02,20,16,52,11.40
2010,02,20,16,53,11.40
2010,02,20,16,54,11.30
2010,02,20,16,55,11.30
2010,02,20,16,56,11.30
2010,02,20,16,57,11.30
2010,02,20,16,58,11.20
2010,02,20,16,59,11.20
2010,02,20,17,00,11.10
2010,02,20,17,01,11.10
2010,02,20,17,02,11.00
2010,02,20,17,03,11.00
2010,02,20,17,04,11.00
2010,02,20,17,05,10.90
2010,02,20,17,06,10.90
2010,02,20,17,07,10.90
2010,02,20,17,08,10.80
2010,02,20,17,09,10.80
2010,02,20,17,10,10.80
2010,02,20,17,11,10.80
2010,02,20,17,12,10.70
2010,02,20,17,13,10.70
2010,02,20,17,14,10.70
2010,02,20,17,15,10.70
2010,02,20,17,16,10.70
2010,02,20,17,17,10.60
2010,02,20,17,18,10.60
2010,02,20,17,19,10.60
2010,02,20,17,20,10.60
2010,02,20,17,21,10.50
2010,02,20,17,22,10.50
2010,02,20,17,23,10.40
2010,02,20,17,24,10.40
2010,02,20,17,25,10.30
2010,02,20,17,26,10.20
2010,02,20,17,27,10.10
2010,02,20,17,28,10.00
2010,02,20,17,29,10.00
2010,02,20,17,30,9.90
2010,02,20,17,31,9.80
2010,02,20,17,32,9.70
2010,02,20,17,33,9.70
2010,02,20,17,34,9.60
2010,02,20,17,35,9.50
2010,02,20,17,36,9.40
2010,02,20,17,37,9.40
2010,02,20,17,38,9.30
2010,02,20,17,39,9.20
2010,02,20,17,40,9.20
2010,02,20,17,41,9.10
2010,02,20,17,42,9.00
2010,02,20,17,43,8.90
2010,02,20,17,44,8.90
2010,02,20,17,45,8.80
2010,02,20,17,46,8.80
2010,02,20,17,47,8.80
2010,02,20,17,48,8.70
2010,02,20,17,49,8.70